Location: Bjelajci
(45.0103°N, 16.1758°E)
Time: 19:44:52
(UTC+00:00)

BREEZE-M DEB (TANK) - Pass Details

Date: 14 July 2020
Orbit: 427 x 13239 km, 46.0° (Epoch: 06 August)

Event Time Altitude Azimuth Distance (km) Brightness Sun altitude
Rises 00:08:11 0° 261° (W) 6,351 8.0 -21.6°
Reaches altitude 10° 00:13:53 10° 263° (W) 3,916 6.9 -21.3°
Maximum altitude 00:21:36 83° 351° (N) 709 3.3 -20.9°
Drops below altitude 10° 00:24:49 10° 81° (E) 1,678 5.7 -20.7°
Sets 00:26:22 0° 82° (E) 2,425 6.5 -20.6°
